Weather reports worldwide

Advertisment
Decimomannu, Italy (16546): temperature & dewpoint: 03.08.2020 22:00:00 - 09.08.2020 22:00:00 (CEST)Decimomannu, Italy (16546): wind speed: 03.08.2020 22:00:00 - 09.08.2020 22:00:00 (CEST)Decimomannu, Italy (16546): wind direction: 03.08.2020 22:00:00 - 09.08.2020 22:00:00 (CEST)Decimomannu, Italy (16546): reduced air pressure: 03.08.2020 22:00:00 - 09.08.2020 22:00:00 (CEST)Decimomannu, Italy (16546): visibility: 03.08.2020 22:00:00 - 09.08.2020 22:00:00 (CEST)
Date & Time tt [°C] td [°C] ff [km/h] ff [kn] dd ppp [hPa] vv [km]
09.08.2020 22:00:00 - - - - - - -
09.08.2020 21:00:00 28,0 19,0 8 4 SE - 10
09.08.2020 20:00:00 30,8 16,4 15 8 SSE 1013,0 20
09.08.2020 19:00:00 32,0 16,0 18 10 SSE - 10
09.08.2020 18:00:00 33,0 16,0 24 13 SSE - 10
09.08.2020 17:00:00 34,0 17,2 24 13 S 1013,5 20
09.08.2020 16:00:00 35,0 18,0 26 14 SSE - 10
09.08.2020 15:00:00 36,0 17,0 22 12 SSE - 10
09.08.2020 14:00:00 36,0 16,2 21 11 SE 1013,7 20
09.08.2020 13:00:00 35,0 16,0 9 5 SW - 10
09.08.2020 12:00:00 33,0 15,0 5 3 SSE - 10
09.08.2020 11:00:00 30,4 15,3 13 7 NW 1014,7 20
09.08.2020 10:00:00 27,0 17,0 16 9 NW - 10
09.08.2020 09:00:00 25,0 19,0 15 8 N - 10
09.08.2020 08:00:00 22,2 19,5 8 4 NW 1014,6 20
09.08.2020 07:00:00 20,0 19,0 8 4 NNW - 10
09.08.2020 06:00:00 20,0 19,0 8 4 NW - 10
09.08.2020 05:00:00 20,6 19,6 5 3 NNW 1014,7 20
09.08.2020 04:00:00 21,0 20,0 5 3 NNW - 10
09.08.2020 03:00:00 22,0 20,0 8 4 NNW - 10
09.08.2020 02:00:00 23,0 21,3 4 2 NNE 1015,1 20
09.08.2020 01:00:00 24,0 22,0 9 5 N - 10
09.08.2020 00:00:00 25,0 21,0 8 4 N - 10
08.08.2020 23:00:00 26,0 18,2 5 3 NE 1015,3 20
08.08.2020 22:00:00 28,0 18,0 9 5 NE - 10
08.08.2020 21:00:00 30,0 19,0 8 4 W - 10
08.08.2020 20:00:00 31,0 17,3 15 8 NNW 1014,8 30
08.08.2020 19:00:00 32,0 18,0 22 12 WNW - 10
08.08.2020 18:00:00 33,0 18,0 24 13 NW - 10
08.08.2020 17:00:00 34,0 17,7 26 14 NNW 1014,8 30
08.08.2020 16:00:00 35,0 17,0 18 10 NNW - 10
08.08.2020 15:00:00 36,0 18,0 22 12 SE - 10
08.08.2020 14:00:00 35,0 13,8 13 7 NNW 1015,3 30
08.08.2020 13:00:00 34,0 14,0 13 7 NNW - 10
08.08.2020 12:00:00 32,0 17,0 16 9 NW - 10
08.08.2020 11:00:00 29,6 18,1 18 10 NNW 1016,8 30
08.08.2020 10:00:00 27,0 22,0 8 4 WNW - 10
08.08.2020 09:00:00 22,0 20,0 9 5 WNW - 10
08.08.2020 08:00:00 21,0 19,3 9 5 WNW 1017,3 20
08.08.2020 07:00:00 21,0 19,0 8 4 WNW - 10
08.08.2020 06:00:00 21,0 19,0 5 3 N - 10
08.08.2020 05:00:00 21,0 19,7 8 4 N 1016,8 20
08.08.2020 04:00:00 22,0 21,0 8 4 NNW - 10
08.08.2020 03:00:00 22,0 22,0 8 4 NW - 10
08.08.2020 02:00:00 22,8 20,5 9 5 NNE 1016,8 20
08.08.2020 01:00:00 25,0 22,0 8 4 NE - 10
08.08.2020 00:00:00 25,0 22,0 8 4 NNE - 10
07.08.2020 23:00:00 26,0 23,1 5 3 E 1016,3 15
07.08.2020 22:00:00 27,0 20,0 5 3 SE - 10
07.08.2020 21:00:00 28,0 21,0 8 4 SE - 10
07.08.2020 20:00:00 29,4 22,1 16 9 SE 1015,4 20
07.08.2020 19:00:00 29,0 22,0 15 8 ESE - 10
07.08.2020 18:00:00 31,0 21,0 18 10 ESE - 10
07.08.2020 17:00:00 33,8 18,3 22 12 SE 1014,7 20
07.08.2020 16:00:00 34,0 18,0 24 13 SE - 10
07.08.2020 15:00:00 33,0 17,0 13 7 NW - 10
07.08.2020 14:00:00 32,2 16,5 11 6 WSW 1016,4 20
07.08.2020 13:00:00 31,0 16,0 8 4 NW - 10
07.08.2020 12:00:00 31,0 17,0 8 4 NW - 10
07.08.2020 11:00:00 28,0 17,5 9 5 W 1015,9 20
07.08.2020 10:00:00 25,0 20,0 8 4 NNW - 10
07.08.2020 09:00:00 23,0 19,0 9 5 N - 10
07.08.2020 08:00:00 21,0 19,3 8 4 NW 1016,1 20
07.08.2020 07:00:00 21,0 20,0 5 3 WNW - 10
07.08.2020 06:00:00 21,0 20,0 4 2 NW - 10
07.08.2020 05:00:00 21,6 20,6 2 1 NNE 1015,0 20
07.08.2020 04:00:00 22,0 21,0 2 1 SW - 10
07.08.2020 03:00:00 22,0 21,0 8 4 NE - 10
07.08.2020 02:00:00 23,2 21,5 5 3 NE 1016,2 20
07.08.2020 01:00:00 24,0 23,0 5 3 ENE - 10
07.08.2020 00:00:00 25,0 24,0 5 3 ESE - 10
06.08.2020 23:00:00 24,8 23,6 8 4 SE 1015,4 20
06.08.2020 22:00:00 25,0 23,0 9 5 SE - 10
06.08.2020 21:00:00 25,0 23,0 11 6 SSE - 10
06.08.2020 20:00:00 28,0 22,7 11 6 SE 1014,0 20
06.08.2020 19:00:00 29,0 22,0 15 8 SSE - 10
06.08.2020 18:00:00 30,0 19,0 22 12 SE - 10
06.08.2020 17:00:00 31,0 18,0 28 15 SE 1013,3 20
06.08.2020 16:00:00 32,0 19,0 22 12 SSE - 10
06.08.2020 15:00:00 32,0 17,0 22 12 SSE - 10
06.08.2020 14:00:00 31,8 13,5 5 3 WSW 1013,6 20
06.08.2020 13:00:00 31,0 14,0 9 5 NNW - 10
06.08.2020 12:00:00 30,0 15,0 9 5 NW - 10
06.08.2020 11:00:00 27,6 16,5 8 4 W 1013,6 20
06.08.2020 10:00:00 23,0 18,0 9 5 NW - 10
06.08.2020 09:00:00 21,0 18,0 8 4 NW - 10
06.08.2020 08:00:00 17,6 14,3 4 2 WNW 1013,7 20
06.08.2020 07:00:00 18,0 17,0 5 3 NW - 10
06.08.2020 06:00:00 18,0 17,0 4 2 WNW - 10
06.08.2020 05:00:00 19,4 18,4 2 1 WNW 1013,0 12
06.08.2020 04:00:00 20,0 19,0 4 2 W - 10
06.08.2020 03:00:00 20,0 18,0 8 4 NW - 10
06.08.2020 02:00:00 19,8 18,3 4 2 NNW 1013,0 20
06.08.2020 01:00:00 21,0 19,0 5 3 NW - 10
06.08.2020 00:00:00 22,0 20,0 8 4 NW - 10
05.08.2020 23:00:00 22,8 20,5 8 4 N 1012,8 15
05.08.2020 22:00:00 24,0 21,0 15 8 N - 10
05.08.2020 21:00:00 24,0 19,0 13 7 NNW - 10
05.08.2020 20:00:00 26,6 18,5 21 11 NW 1010,7 20
05.08.2020 19:00:00 28,0 17,0 26 14 NNW - 10
05.08.2020 18:00:00 29,0 15,0 28 15 NW - 10
05.08.2020 17:00:00 28,8 16,7 29 16 NW 1010,7 20
05.08.2020 16:00:00 30,0 15,0 29 16 NNW - 10
05.08.2020 15:00:00 30,0 14,0 28 15 NNW - 10
05.08.2020 14:00:00 29,4 14,8 28 15 NW 1011,4 20
05.08.2020 13:00:00 29,0 16,0 28 15 NW - 10
05.08.2020 12:00:00 28,0 16,0 28 15 NW - 10
05.08.2020 11:00:00 26,8 17,3 29 16 NW 1011,6 12
05.08.2020 10:00:00 26,0 16,0 29 16 NW - 10
05.08.2020 09:00:00 24,0 18,0 13 7 NNW - 10
05.08.2020 08:00:00 21,6 18,0 11 6 N 1011,1 10
05.08.2020 07:00:00 21,0 18,0 11 6 N - 10
05.08.2020 06:00:00 21,0 18,0 4 2 N - 10
05.08.2020 05:00:00 21,0 18,0 9 5 NNE 1010,8 20
05.08.2020 04:00:00 21,0 18,0 2 1 - - 10
05.08.2020 03:00:00 22,0 17,0 8 4 NW - 10
05.08.2020 02:00:00 22,2 16,7 11 6 NNE 1011,1 25
05.08.2020 01:00:00 22,0 17,0 11 6 NNW - 10
05.08.2020 00:00:00 22,0 17,0 11 6 NW - 10
04.08.2020 23:00:00 22,4 17,1 16 9 WNW 1011,7 20
04.08.2020 22:00:00 23,0 17,0 16 9 WNW - 10
04.08.2020 21:00:00 23,0 17,0 21 11 WNW - 10
04.08.2020 20:00:00 24,6 16,8 28 15 WNW 1010,9 20
04.08.2020 19:00:00 25,0 15,0 34 18 WNW - 10
04.08.2020 18:00:00 26,0 11,0 31 17 WNW - 10
04.08.2020 17:00:00 26,8 13,9 41 22 NW 1010,7 20
04.08.2020 16:00:00 27,0 13,0 35 19 NW - 10
04.08.2020 15:00:00 28,0 12,0 37 20 NW - 10
04.08.2020 14:00:00 26,2 13,4 31 17 NW 1011,5 20
04.08.2020 13:00:00 27,0 13,0 31 17 NW - 10
04.08.2020 12:00:00 27,0 15,0 37 20 NW - 10
04.08.2020 11:00:00 26,2 15,0 31 17 WNW 1011,0 18
04.08.2020 10:00:00 25,0 16,0 31 17 NW - 10
04.08.2020 09:00:00 24,0 17,0 24 13 NW - 10
04.08.2020 08:00:00 23,0 16,1 15 8 NW 1009,8 15
04.08.2020 07:00:00 21,0 16,0 21 11 NW - 10
04.08.2020 06:00:00 23,0 21,0 13 7 NW - 10
04.08.2020 05:00:00 23,0 20,7 8 4 NNW 1009,5 20
04.08.2020 04:00:00 23,0 21,0 11 6 N - 10
04.08.2020 03:00:00 24,0 22,0 9 5 NNW - 10
04.08.2020 02:00:00 24,0 21,5 11 6 NNW 1010,2 15
04.08.2020 01:00:00 24,0 22,0 21 11 NW - 10
04.08.2020 00:00:00 25,0 23,0 16 9 NW - 10
03.08.2020 23:00:00 25,0 23,2 22 12 NNW 1009,8 20
03.08.2020 22:00:00 25,0 23,0 24 13 NNW - 10

tt = temperature
td = dewpoint
ff = wind speed
dd = wind direction
ppp = reduced air pressure
vv = visibility

Next stations